STARLINK-35319

Last updated on Mon Oct 20 2025 00:02:06 GMT+0000 (Coordinated Universal Time)

1 65743U 25216K 25292.23661097 .00106880 00000+0 19012-2 0 9992 2 65743 53.1584 272.2560 0001773 99.4341 260.6868 15.49343762 4908
UTC large
Height (km)
Speed (km/s)
/
Latitude / Longitude
Inclination (degrees)
Orbital Period (minutes)
Azimuth
Elevation
Range (km)
Doppler Factor

Next 0 passes for location: London (51.5072 / 0.1276)

Sorry there are no passes over London.